Location: Unspecified
(0.0000°N, 0.0000°E)
Time: 05:01:49
(UTC+00:00)

KAITUO 1B - Pass Details

Date: 09 July 2020
Orbit: 493 x 515 km, 97.4° (Epoch: 13 August)

Event Time Altitude Azimuth Distance (km) Brightness Sun altitude
Rises 18:43:29 0° 197° (SSW) 2,598 ? -8.8°
Reaches altitude 10° 18:46:09 10° 218° (SW) 1,715 ? -9.4°
Maximum altitude 18:48:32 16° 259° (WSW) 1,362 ? -10.0°
Drops below altitude 10° 18:50:54 10° 299° (WNW) 1,718 ? -10.5°
Sets 18:53:36 0° 321° (NW) 2,604 ? -11.1°
